Miscellaneous Local Product
Issued by NWS Hastings, NE

Home | Current Version | Previous Version | Graphics & Text | Print | Product List | Glossary On
Versions: 1 2 3 4 5 6 7 8 9 10 11 12 13 14 15 16 17 18 19 20 21 22 23 24 25 26 27 28 29 30 31 32 33 34 35 36 37 38 39 40 41 42 43 44 45 46 47 48 49 50
000
AXUS43 KGID 172002
MISGRI

GID CWA HOURLY WEATHER ROUNDUP
NATIONAL WEATHER SERVICE HASTINGS NE
300 PM CDT THU APR 17 2014

NOTE: "FAIR" INDICATES FEW OR NO CLOUDS BELOW 12,000 FEET WITH NO
SIGNIFICANT WEATHER AND/OR OBSTRUCTIONS TO VISIBILITY.

...SOUTH CENTRAL NEBRASKA...

CITY           SKY/WX    TMP DP  RH WIND       PRES   REMARKS
GRAND ISLAND   SUNNY     51  26  37 CALM      30.27F
HASTINGS       SUNNY     50  27  40 VRB5      30.25F
KEARNEY        SUNNY     48  28  46 S7        30.26F
ORD            SUNNY     49  23  36 SE10      30.24F
YORK           SUNNY     48  23  37 CALM      30.26F
AURORA         SUNNY     51  26  37 N3        30.27S
LEXINGTON      SUNNY     47  29  51 SE5       30.24F
HOLDREGE       SUNNY     47  28  48 SE3       30.24F
HEBRON         SUNNY     51  27  39 S5        30.27S

...NEBRASKA PANHANDLE...

CITY           SKY/WX    TMP DP  RH WIND       PRES   REMARKS
CHADRON        PTSUNNY   49  37  63 S8G17     30.08F
ALLIANCE       CLOUDY    42  33  70 S17       30.11F
SCOTTSBLUFF    SUNNY     56  36  47 SE14G22   30.07F
SIDNEY         MOSUNNY   50  36  58 S15G24    30.11F

...WESTERN AND NORTH CENTRAL NEBRASKA...

CITY           SKY/WX    TMP DP  RH WIND       PRES   REMARKS
VALENTINE      CLOUDY    44  26  49 S14       30.20F
AINSWORTH      CLOUDY    46  25  43 S9        30.22S
ONEILL         PTSUNNY   48  16  28 E6        30.25F
BROKEN BOW     MOSUNNY   47  25  42 SE10G21   30.22F
IMPERIAL       PTSUNNY   49  33  54 S20G26    30.18F
NORTH PLATTE   SUNNY     50  27  40 S9G20     30.20F
MCCOOK         SUNNY     50  31  48 S10       30.23F

...EASTERN NEBRASKA...

CITY           SKY/WX    TMP DP  RH WIND       PRES   REMARKS
NORFOLK        SUNNY     50  22  33 VRB7      30.26F
SO SIOUX CITY  SUNNY     49  24  37 CALM      30.29F
TEKAMAH        SUNNY     51  23  33 VRB3      30.28F
COLUMBUS       SUNNY     52  27  37 N3        30.28F
ALBION         SUNNY     49  21  33 S5        30.26F
OMAHA EPPLEY   MOSUNNY   51  26  37 NW7       30.28F
OFFUTT AFB     SUNNY     52  28  40 NE8       30.28F
MILLARD        SUNNY     48  27  44 NE5       30.29S
LINCOLN        SUNNY     53  25  33 CALM      30.28F
NEBRASKA CITY  SUNNY     49  29  45 NE7       30.29S
BEATRICE       SUNNY     52  27  38 SE5       30.27F
FALLS CITY     SUNNY     52  30  43 VRB5      30.28F

...NORTHERN KANSAS...

CITY           SKY/WX    TMP DP  RH WIND       PRES   REMARKS
GOODLAND       CLOUDY    52  35  52 S17       30.20F
HILL CITY      SUNNY     51  28  41 NW3       30.25F
PHILLIPSBURG   SUNNY     52  27  37 N3        30.26F
SMITH CENTER   SUNNY     52  28  40 NE5       30.27F
BELOIT         SUNNY     52  28  40 N3        30.27F
HAYS           SUNNY     52  28  40 CALM      30.26F
RUSSELL        SUNNY     51  28  41 NW3       30.25F
CONCORDIA      SUNNY     52  28  39 VRB3      30.27F
SALINA         MOSUNNY   53  29  39 VRB3      30.28F
TOPEKA         CLOUDY    49  32  52 CALM      30.30F



USA.gov is the U.S. government's official web portal to all federal, state and local government web resources and services.